| time (UTC) | temp C | wind direction | speed KPH | gust KPH | rain 1hr cm | rain 24hr cm | rain mn cm | humidity % | barometer mb |
| 20260905182523 | 22 | 0 | 0.0 | 6.4 | 0.00 | 0.00 | 0.00 | 86 | 1020.4 |
| 20260905182020 | 21 | 323 | 0.0 | 6.4 | 0.00 | 0.00 | 0.00 | 87 | 1020.5 |
| 20260905181536 | 21 | 0 | 0.0 | 0.0 | 0.00 | 0.00 | 0.00 | 89 | 1020.3 |
| 20260905181020 | 21 | 0 | 0.0 | 0.0 | 0.00 | 0.00 | 0.00 | 90 | 1020.4 |
| 20260905180523 | 21 | 0 | 0.0 | 1.6 | 0.00 | 0.00 | 0.00 | 88 | 1020.3 |
| 20260905180036 | 21 | 0 | 0.0 | 1.6 | 0.00 | 0.00 | 0.00 | 87 | 1020.4 |
| 20260905175521 | 21 | 0 | 0.0 | 1.6 | 0.00 | 0.00 | 0.00 | 88 | 1020.4 |
| 20260905175020 | 21 | 0 | 0.0 | 3.2 | 0.00 | 0.00 | 0.00 | 89 | 1020.4 |
| 20260905174534 | 21 | 0 | 0.0 | 3.2 | 0.00 | 0.00 | 0.00 | 89 | 1020.5 |
| 20260905174018 | 21 | 0 | 0.0 | 3.2 | 0.00 | 0.00 | 0.00 | 90 | 1020.7 |
| 20260905173518 | 20 | 0 | 0.0 | 1.6 | 0.00 | 0.00 | 0.00 | 90 | 1020.8 |
| 20260905173033 | 20 | 0 | 0.0 | 1.6 | 0.00 | 0.00 | 0.00 | 91 | 1020.8 |
| 20260905172520 | 20 | 0 | 0.0 | 1.6 | 0.00 | 0.00 | 0.00 | 90 | 1020.8 |
| 20260905172021 | 20 | 0 | 0.0 | 1.6 | 0.00 | 0.00 | 0.00 | 92 | 1020.8 |
| 20260905171536 | 20 | 0 | 0.0 | 1.6 | 0.00 | 0.00 | 0.00 | 91 | 1020.7 |
| 20260905171022 | 20 | 0 | 0.0 | 0.0 | 0.00 | 0.00 | 0.00 | 92 | 1020.8 |
| 20260905170519 | 20 | 0 | 0.0 | 0.0 | 0.00 | 0.00 | 0.00 | 92 | 1020.9 |
| 20260905170038 | 20 | 0 | 0.0 | 0.0 | 0.00 | 0.00 | 0.00 | 92 | 1020.9 |
| 20260905165518 | 20 | 0 | 0.0 | 1.6 | 0.00 | 0.00 | 0.00 | 92 | 1021.0 |
| 20260905165016 | 20 | 0 | 0.0 | 1.6 | 0.00 | 0.00 | 0.00 | 92 | 1021.0 |
| 20260905164535 | 20 | 0 | 0.0 | 4.8 | 0.00 | 0.00 | 0.00 | 93 | 1020.9 |
| 20260905164018 | 19 | 0 | 0.0 | 4.8 | 0.00 | 0.00 | 0.00 | 93 | 1020.9 |
| 20260905163525 | 19 | 0 | 0.0 | 4.8 | 0.00 | 0.00 | 0.00 | 93 | 1021.0 |
| 20260905163037 | 19 | 0 | 0.0 | 3.2 | 0.00 | 0.00 | 0.00 | 94 | 1020.9 |
| 20260905162522 | 19 | 0 | 0.0 | 4.8 | 0.00 | 0.00 | 0.00 | 94 | 1020.9 |
| 20260905162022 | 19 | 0 | 0.0 | 4.8 | 0.00 | 0.00 | 0.00 | 95 | 1021.0 |
| 20260905161534 | 19 | 0 | 0.0 | 4.8 | 0.00 | 0.00 | 0.00 | 94 | 1021.0 |
| 20260905161020 | 19 | 144 | 0.0 | 4.8 | 0.00 | 0.00 | 0.00 | 95 | 1021.0 |
| 20260905160519 | 19 | 144 | 1.6 | 4.8 | 0.00 | 0.00 | 0.00 | 94 | 1020.9 |
| 20260905160037 | 19 | 144 | 1.6 | 4.8 | 0.00 | 0.00 | 0.00 | 94 | 1020.8 |
| 20260905155520 | 18 | 0 | 0.0 | 4.8 | 0.00 | 0.00 | 0.00 | 95 | 1020.9 |
| 20260905155022 | 18 | 144 | 0.0 | 4.8 | 0.00 | 0.00 | 0.00 | 94 | 1020.8 |
| 20260905154544 | 19 | 0 | 1.6 | 4.8 | 0.00 | 0.00 | 0.00 | 95 | 1020.9 |
| 20260905154018 | 19 | 0 | 0.0 | 3.2 | 0.00 | 0.00 | 0.00 | 95 | 1020.9 |
| 20260905153520 | 19 | 0 | 0.0 | 3.2 | 0.00 | 0.00 | 0.00 | 96 | 1020.9 |
| 20260905153037 | 19 | 0 | 0.0 | 4.8 | 0.00 | 0.00 | 0.00 | 96 | 1020.7 |
| 20260905152520 | 19 | 0 | 0.0 | 6.4 | 0.00 | 0.00 | 0.00 | 97 | 1020.6 |
| 20260905152022 | 19 | 144 | 0.0 | 6.4 | 0.00 | 0.00 | 0.00 | 97 | 1020.6 |
| 20260905151538 | 19 | 144 | 0.0 | 4.8 | 0.00 | 0.00 | 0.00 | 97 | 1020.5 |
| 20260905151017 | 18 | 0 | 0.0 | 1.6 | 0.00 | 0.00 | 0.00 | 97 | 1020.4 |
| 20260905150518 | 18 | 0 | 0.0 | 0.0 | 0.00 | 0.00 | 0.00 | 97 | 1020.6 |
| 20260905150039 | 18 | 0 | 0.0 | 0.0 | 0.00 | 0.00 | 0.00 | 97 | 1020.6 |
| 20260905145527 | 19 | 0 | 0.0 | 0.0 | 0.00 | 0.00 | 0.00 | 97 | 1020.5 |
| 20260905145020 | 19 | 0 | 0.0 | 4.8 | 0.00 | 0.00 | 0.00 | 98 | 1020.4 |
| 20260905144536 | 18 | 0 | 0.0 | 4.8 | 0.00 | 0.00 | 0.00 | 98 | 1020.4 |
| 20260905144019 | 18 | 0 | 0.0 | 4.8 | 0.00 | 0.00 | 0.00 | 98 | 1020.3 |
| 20260905143519 | 18 | 175 | 0.0 | 3.2 | 0.00 | 0.00 | 0.00 | 99 | 1020.4 |
| 20260905143035 | 18 | 0 | 0.0 | 3.2 | 0.00 | 0.00 | 0.00 | 99 | 1020.3 |
| 20260905142517 | 18 | 0 | 0.0 | 3.2 | 0.00 | 0.00 | 0.00 | 99 | 1020.2 |
| 20260905142016 | 18 | 0 | 0.0 | 3.2 | 0.00 | 0.00 | 0.00 | 99 | 1020.1 |
| 20260905141536 | 18 | 0 | 0.0 | 3.2 | 0.00 | 0.00 | 0.00 | 100 | 1019.8 |
| 20260905141023 | 18 | 0 | 0.0 | 3.2 | 0.00 | 0.00 | 0.00 | 100 | 1019.8 |
| 20260905140524 | 18 | 0 | 0.0 | 3.2 | 0.00 | 0.00 | 0.00 | 100 | 1019.8 |
| 20260905140037 | 18 | 0 | 0.0 | 1.6 | 0.00 | 0.00 | 0.00 | 100 | 1019.6 |
| 20260905135519 | 18 | 0 | 0.0 | 1.6 | 0.00 | 0.00 | 0.00 | 100 | 1019.6 |
| 20260905135020 | 18 | 0 | 0.0 | 1.6 | 0.00 | 0.00 | 0.00 | 100 | 1019.5 |
| 20260905134544 | 18 | 0 | 0.0 | 0.0 | 0.00 | 0.00 | 0.00 | 100 | 1019.5 |
| 20260905134020 | 18 | 0 | 0.0 | 0.0 | 0.00 | 0.00 | 0.00 | 100 | 1019.6 |
| 20260905133523 | 18 | 0 | 0.0 | 0.0 | 0.00 | 0.00 | 0.00 | 100 | 1019.6 |
| 20260905133034 | 18 | 0 | 0.0 | 0.0 | 0.00 | 0.00 | 0.00 | 100 | 1019.8 |
| 20260905132519 | 18 | 0 | 0.0 | 0.0 | 0.00 | 0.00 | 0.00 | 100 | 1019.9 |
| 20260905132016 | 18 | 0 | 0.0 | 0.0 | 0.00 | 0.00 | 0.00 | 100 | 1019.9 |
| 20260905131536 | 18 | 0 | 0.0 | 0.0 | 0.00 | 0.00 | 0.00 | 100 | 1020.0 |
| 20260905131020 | 18 | 0 | 0.0 | 0.0 | 0.00 | 0.00 | 0.00 | 100 | 1020.0 |
| 20260905130524 | 18 | 0 | 0.0 | 0.0 | 0.00 | 0.00 | 0.00 | 100 | 1019.9 |
| 20260905130034 | 17 | 0 | 0.0 | 0.0 | 0.00 | 0.00 | 0.00 | 100 | 1019.7 |
| 20260905125519 | 17 | 0 | 0.0 | 0.0 | 0.00 | 0.00 | 0.00 | 100 | 1019.8 |
| 20260905125023 | 17 | 0 | 0.0 | 0.0 | 0.00 | 0.00 | 0.00 | 100 | 1019.7 |
| 20260905124537 | 17 | 0 | 0.0 | 0.0 | 0.00 | 0.00 | 0.00 | 100 | 1019.7 |
| 20260905124017 | 17 | 0 | 0.0 | 0.0 | 0.00 | 0.00 | 0.00 | 100 | 1019.8 |
| 20260905123516 | 17 | 0 | 0.0 | 0.0 | 0.00 | 0.00 | 0.00 | 100 | 1019.8 |
| 20260905123036 | 17 | 0 | 0.0 | 0.0 | 0.00 | 0.00 | 0.00 | 100 | 1019.7 |
| 20260905122522 | 17 | 0 | 0.0 | 0.0 | 0.00 | 0.00 | 0.00 | 100 | 1019.7 |
| 20260905122016 | 17 | 0 | 0.0 | 0.0 | 0.00 | 0.00 | 0.00 | 100 | 1019.5 |
| 20260905121535 | 17 | 0 | 0.0 | 0.0 | 0.00 | 0.00 | 0.00 | 100 | 1019.4 |
| 20260905121021 | 17 | 0 | 0.0 | 0.0 | 0.00 | 0.00 | 0.00 | 100 | 1019.2 |
| 20260905120525 | 17 | 0 | 0.0 | 0.0 | 0.00 | 0.00 | 0.00 | 100 | 1019.1 |
| 20260905120035 | 17 | 0 | 0.0 | 0.0 | 0.00 | 0.00 | 0.00 | 100 | 1019.1 |
| 20260905115518 | 17 | 0 | 0.0 | 0.0 | 0.00 | 0.00 | 0.00 | 100 | 1018.9 |
| 20260905115020 | 17 | 0 | 0.0 | 0.0 | 0.00 | 0.00 | 0.00 | 100 | 1019.0 |
| 20260905114537 | 17 | 0 | 0.0 | 0.0 | 0.00 | 0.00 | 0.00 | 100 | 1018.9 |
| 20260905114021 | 17 | 0 | 0.0 | 0.0 | 0.00 | 0.00 | 0.00 | 100 | 1018.7 |
| 20260905113519 | 17 | 0 | 0.0 | 0.0 | 0.00 | 0.00 | 0.00 | 100 | 1018.7 |
| 20260905113037 | 17 | 0 | 0.0 | 0.0 | 0.00 | 0.00 | 0.00 | 100 | 1018.6 |
| 20260905112516 | 17 | 0 | 0.0 | 0.0 | 0.00 | 0.00 | 0.00 | 100 | 1018.5 |
| 20260905112022 | 17 | 0 | 0.0 | 0.0 | 0.00 | 0.00 | 0.00 | 100 | 1018.4 |
| 20260905111538 | 17 | 0 | 0.0 | 0.0 | 0.00 | 0.00 | 0.00 | 100 | 1018.4 |
| 20260905111026 | 17 | 0 | 0.0 | 0.0 | 0.00 | 0.00 | 0.00 | 100 | 1018.4 |
| 20260905110521 | 17 | 0 | 0.0 | 0.0 | 0.00 | 0.00 | 0.00 | 100 | 1018.3 |
| 20260905110036 | 17 | 0 | 0.0 | 0.0 | 0.00 | 0.00 | 0.00 | 100 | 1018.3 |
| 20260905105521 | 17 | 0 | 0.0 | 0.0 | 0.00 | 0.00 | 0.00 | 100 | 1018.3 |
| 20260905105021 | 17 | 0 | 0.0 | 0.0 | 0.00 | 0.00 | 0.00 | 100 | 1018.2 |
| 20260905104536 | 17 | 0 | 0.0 | 0.0 | 0.00 | 0.00 | 0.00 | 100 | 1018.1 |
| 20260905104020 | 17 | 0 | 0.0 | 0.0 | 0.00 | 0.00 | 0.00 | 100 | 1018.3 |
| 20260905103519 | 17 | 0 | 0.0 | 1.6 | 0.00 | 0.00 | 0.00 | 100 | 1018.3 |
| 20260905103044 | 17 | 0 | 0.0 | 1.6 | 0.00 | 0.00 | 0.00 | 100 | 1018.2 |
| 20260905102519 | 17 | 0 | 0.0 | 0.0 | 0.00 | 0.00 | 0.00 | 100 | 1018.3 |
| 20260905102019 | 17 | 0 | 0.0 | 0.0 | 0.00 | 0.00 | 0.00 | 100 | 1018.4 |
| 20260905101537 | 17 | 0 | 0.0 | 0.0 | 0.00 | 0.00 | 0.00 | 100 | 1018.4 |
| 20260905101019 | 17 | 0 | 0.0 | 0.0 | 0.00 | 0.00 | 0.00 | 99 | 1018.5 |
| 20260905100519 | 17 | 0 | 0.0 | 0.0 | 0.00 | 0.00 | 0.00 | 99 | 1018.5 |
| 20260905100040 | 17 | 0 | 0.0 | 0.0 | 0.00 | 0.00 | 0.00 | 99 | 1018.5 |
| 20260905095521 | 17 | 0 | 0.0 | 0.0 | 0.00 | 0.00 | 0.00 | 99 | 1018.6 |
| 20260905095020 | 17 | 0 | 0.0 | 0.0 | 0.00 | 0.00 | 0.00 | 99 | 1018.6 |
| 20260905094537 | 17 | 0 | 0.0 | 0.0 | 0.00 | 0.00 | 0.00 | 99 | 1018.5 |
| 20260905094019 | 17 | 0 | 0.0 | 0.0 | 0.00 | 0.00 | 0.00 | 99 | 1018.5 |
| 20260905093522 | 17 | 0 | 0.0 | 0.0 | 0.00 | 0.00 | 0.00 | 99 | 1018.5 |
| 20260905093048 | 17 | 0 | 0.0 | 0.0 | 0.00 | 0.00 | 0.00 | 99 | 1018.5 |
| 20260905092521 | 17 | 0 | 0.0 | 0.0 | 0.00 | 0.00 | 0.00 | 99 | 1018.7 |
| 20260905092019 | 17 | 0 | 0.0 | 1.6 | 0.00 | 0.00 | 0.00 | 99 | 1018.6 |
| 20260905091537 | 17 | 0 | 0.0 | 1.6 | 0.00 | 0.00 | 0.00 | 99 | 1018.6 |
| 20260905091022 | 17 | 0 | 0.0 | 1.6 | 0.00 | 0.00 | 0.00 | 99 | 1018.6 |
| 20260905090518 | 17 | 0 | 0.0 | 1.6 | 0.00 | 0.00 | 0.00 | 99 | 1018.6 |
| 20260905090038 | 17 | 0 | 0.0 | 0.0 | 0.00 | 0.00 | 0.00 | 99 | 1018.7 |
| 20260905085521 | 17 | 0 | 0.0 | 3.2 | 0.00 | 0.00 | 0.00 | 99 | 1018.8 |
| 20260905085018 | 17 | 0 | 0.0 | 3.2 | 0.00 | 0.00 | 0.00 | 99 | 1018.8 |
| 20260905084536 | 17 | 0 | 0.0 | 0.0 | 0.00 | 0.00 | 0.00 | 99 | 1018.8 |
| 20260905084021 | 17 | 0 | 0.0 | 0.0 | 0.00 | 0.00 | 0.00 | 99 | 1018.7 |
| 20260905083520 | 17 | 0 | 0.0 | 1.6 | 0.00 | 0.00 | 0.00 | 99 | 1018.7 |
| 20260905083034 | 17 | 0 | 0.0 | 1.6 | 0.00 | 0.00 | 0.00 | 99 | 1018.8 |
| 20260905082521 | 17 | 0 | 0.0 | 0.0 | 0.00 | 0.00 | 0.00 | 99 | 1018.8 |
| 20260905082021 | 17 | 0 | 0.0 | 0.0 | 0.00 | 0.00 | 0.00 | 100 | 1018.8 |
| 20260905081536 | 17 | 0 | 0.0 | 0.0 | 0.00 | 0.00 | 0.00 | 99 | 1018.7 |
| 20260905081019 | 17 | 0 | 0.0 | 0.0 | 0.00 | 0.00 | 0.00 | 99 | 1018.7 |
| 20260905080519 | 17 | 0 | 0.0 | 0.0 | 0.00 | 0.00 | 0.00 | 99 | 1018.7 |
| 20260905080040 | 17 | 0 | 0.0 | 0.0 | 0.00 | 0.00 | 0.00 | 99 | 1018.6 |
| 20260905075518 | 17 | 0 | 0.0 | 0.0 | 0.00 | 0.00 | 0.00 | 99 | 1018.7 |
| 20260905075021 | 17 | 0 | 0.0 | 0.0 | 0.00 | 0.00 | 0.00 | 99 | 1018.7 |
| 20260905074534 | 17 | 0 | 0.0 | 0.0 | 0.00 | 0.00 | 0.00 | 99 | 1018.7 |
| 20260905074019 | 17 | 0 | 0.0 | 0.0 | 0.00 | 0.00 | 0.00 | 99 | 1018.7 |
| 20260905073524 | 17 | 0 | 0.0 | 0.0 | 0.00 | 0.00 | 0.00 | 99 | 1018.7 |
| 20260905073034 | 17 | 0 | 0.0 | 0.0 | 0.00 | 0.00 | 0.00 | 99 | 1018.7 |
| 20260905072521 | 17 | 0 | 0.0 | 0.0 | 0.00 | 0.00 | 0.00 | 99 | 1018.7 |
| 20260905072019 | 17 | 0 | 0.0 | 0.0 | 0.00 | 0.00 | 0.00 | 99 | 1018.5 |
| 20260905071537 | 17 | 0 | 0.0 | 0.0 | 0.00 | 0.00 | 0.00 | 99 | 1018.5 |
| 20260905071024 | 17 | 0 | 0.0 | 0.0 | 0.00 | 0.00 | 0.00 | 99 | 1018.5 |
| 20260905070520 | 17 | 0 | 0.0 | 0.0 | 0.00 | 0.00 | 0.00 | 99 | 1018.5 |
| 20260905070037 | 17 | 0 | 0.0 | 0.0 | 0.00 | 0.00 | 0.00 | 99 | 1018.5 |
| 20260905065517 | 17 | 0 | 0.0 | 0.0 | 0.00 | 0.00 | 0.00 | 99 | 1018.6 |
| 20260905065018 | 17 | 0 | 0.0 | 0.0 | 0.00 | 0.00 | 0.00 | 99 | 1018.5 |
| 20260905064536 | 17 | 0 | 0.0 | 0.0 | 0.00 | 0.00 | 0.00 | 99 | 1018.4 |
| 20260905064023 | 17 | 0 | 0.0 | 0.0 | 0.00 | 0.00 | 0.00 | 99 | 1018.4 |
| 20260905063520 | 17 | 0 | 0.0 | 0.0 | 0.00 | 0.00 | 0.00 | 99 | 1018.4 |
| 20260905063034 | 17 | 0 | 0.0 | 0.0 | 0.00 | 0.00 | 0.00 | 99 | 1018.4 |
| 20260905062520 | 17 | 0 | 0.0 | 0.0 | 0.00 | 0.00 | 0.00 | 99 | 1018.6 |
| 20260905062020 | 17 | 0 | 0.0 | 1.6 | 0.00 | 0.00 | 0.00 | 99 | 1018.5 |
| 20260905061536 | 17 | 0 | 0.0 | 1.6 | 0.00 | 0.00 | 0.00 | 99 | 1018.5 |
| 20260905061020 | 17 | 0 | 0.0 | 0.0 | 0.00 | 0.00 | 0.00 | 99 | 1018.5 |
| 20260905060520 | 17 | 0 | 0.0 | 1.6 | 0.00 | 0.00 | 0.00 | 99 | 1018.4 |
| 20260905060033 | 17 | 0 | 0.0 | 1.6 | 0.00 | 0.00 | 0.00 | 99 | 1018.4 |
| 20260905055519 | 17 | 344 | 0.0 | 1.6 | 0.00 | 0.00 | 0.00 | 99 | 1018.4 |
| 20260905055020 | 17 | 0 | 0.0 | 0.0 | 0.00 | 0.00 | 0.00 | 99 | 1018.3 |
| 20260905054536 | 17 | 0 | 0.0 | 0.0 | 0.00 | 0.00 | 0.00 | 99 | 1018.3 |
| 20260905054016 | 17 | 0 | 0.0 | 0.0 | 0.00 | 0.00 | 0.00 | 99 | 1018.2 |
| 20260905053521 | 17 | 0 | 0.0 | 0.0 | 0.00 | 0.00 | 0.00 | 99 | 1018.2 |
| 20260905053036 | 17 | 0 | 0.0 | 0.0 | 0.00 | 0.00 | 0.00 | 99 | 1018.2 |
| 20260905052519 | 17 | 0 | 0.0 | 0.0 | 0.00 | 0.00 | 0.00 | 99 | 1018.3 |
| 20260905052023 | 17 | 0 | 0.0 | 0.0 | 0.00 | 0.00 | 0.00 | 99 | 1018.3 |
| 20260905051533 | 17 | 0 | 0.0 | 3.2 | 0.00 | 0.00 | 0.00 | 99 | 1018.3 |
| 20260905051019 | 17 | 0 | 0.0 | 3.2 | 0.00 | 0.00 | 0.00 | 99 | 1018.4 |
| 20260905050522 | 17 | 344 | 0.0 | 3.2 | 0.00 | 0.00 | 0.00 | 99 | 1018.4 |
| 20260905050037 | 17 | 0 | 0.0 | 1.6 | 0.00 | 0.00 | 0.00 | 99 | 1018.4 |
| 20260905045518 | 17 | 0 | 0.0 | 4.8 | 0.00 | 0.00 | 0.00 | 99 | 1018.4 |
| 20260905045019 | 17 | 0 | 0.0 | 4.8 | 0.00 | 0.00 | 0.00 | 99 | 1018.3 |
| 20260905044543 | 17 | 0 | 0.0 | 4.8 | 0.00 | 0.00 | 0.00 | 99 | 1018.3 |
| 20260905044021 | 17 | 0 | 0.0 | 3.2 | 0.00 | 0.00 | 0.00 | 98 | 1018.3 |
| 20260905043520 | 17 | 0 | 0.0 | 4.8 | 0.00 | 0.00 | 0.00 | 98 | 1018.3 |
| 20260905043047 | 17 | 0 | 0.0 | 4.8 | 0.00 | 0.00 | 0.00 | 98 | 1018.3 |
| 20260905042519 | 17 | 344 | 0.0 | 3.2 | 0.00 | 0.00 | 0.00 | 98 | 1018.4 |
| 20260905042021 | 17 | 0 | 0.0 | 3.2 | 0.00 | 0.00 | 0.00 | 98 | 1018.4 |
| 20260905041534 | 17 | 0 | 0.0 | 0.0 | 0.00 | 0.00 | 0.00 | 98 | 1018.3 |
| 20260905041020 | 17 | 0 | 0.0 | 0.0 | 0.00 | 0.00 | 0.00 | 98 | 1018.4 |
| 20260905040520 | 17 | 0 | 0.0 | 0.0 | 0.00 | 0.00 | 0.00 | 98 | 1018.4 |
| 20260905040037 | 17 | 0 | 0.0 | 0.0 | 0.00 | 0.00 | 0.00 | 98 | 1018.3 |
| 20260905035518 | 17 | 0 | 0.0 | 0.0 | 0.00 | 0.00 | 0.00 | 98 | 1018.4 |
| 20260905035017 | 17 | 0 | 0.0 | 0.0 | 0.00 | 0.00 | 0.00 | 98 | 1018.4 |
| 20260905034537 | 17 | 0 | 0.0 | 0.0 | 0.00 | 0.00 | 0.00 | 98 | 1018.3 |
| 20260905034020 | 17 | 0 | 0.0 | 1.6 | 0.00 | 0.00 | 0.00 | 98 | 1018.4 |
| 20260905033521 | 17 | 0 | 0.0 | 1.6 | 0.00 | 0.00 | 0.00 | 98 | 1018.4 |
| 20260905033035 | 17 | 0 | 0.0 | 3.2 | 0.00 | 0.00 | 0.00 | 98 | 1018.4 |
| 20260905032520 | 17 | 0 | 0.0 | 3.2 | 0.00 | 0.00 | 0.00 | 98 | 1018.4 |
| 20260905032023 | 17 | 0 | 0.0 | 0.0 | 0.00 | 0.00 | 0.00 | 98 | 1018.4 |
| 20260905031542 | 17 | 0 | 0.0 | 0.0 | 0.00 | 0.00 | 0.00 | 98 | 1018.5 |
| 20260905031020 | 17 | 0 | 0.0 | 0.0 | 0.00 | 0.00 | 0.00 | 98 | 1018.4 |
| 20260905030520 | 17 | 0 | 0.0 | 0.0 | 0.00 | 0.00 | 0.00 | 97 | 1018.4 |
| 20260905030037 | 17 | 0 | 0.0 | 0.0 | 0.00 | 0.00 | 0.00 | 97 | 1018.3 |
| 20260905025517 | 17 | 0 | 0.0 | 0.0 | 0.00 | 0.00 | 0.00 | 97 | 1018.4 |
| 20260905025020 | 17 | 0 | 0.0 | 0.0 | 0.00 | 0.00 | 0.00 | 97 | 1018.3 |
| 20260905024534 | 17 | 0 | 0.0 | 0.0 | 0.00 | 0.00 | 0.00 | 97 | 1018.4 |
| 20260905024020 | 17 | 0 | 0.0 | 0.0 | 0.00 | 0.00 | 0.00 | 97 | 1018.2 |
| 20260905023520 | 17 | 0 | 0.0 | 1.6 | 0.00 | 0.00 | 0.00 | 97 | 1018.1 |
| 20260905023035 | 17 | 0 | 0.0 | 3.2 | 0.00 | 0.00 | 0.00 | 97 | 1018.1 |
| 20260905022518 | 17 | 0 | 0.0 | 3.2 | 0.00 | 0.00 | 0.00 | 97 | 1018.1 |
| 20260905022018 | 18 | 0 | 0.0 | 3.2 | 0.00 | 0.00 | 0.00 | 97 | 1018.1 |
| 20260905021537 | 18 | 0 | 0.0 | 3.2 | 0.00 | 0.00 | 0.00 | 97 | 1018.1 |
| 20260905021022 | 18 | 0 | 0.0 | 3.2 | 0.00 | 0.00 | 0.00 | 97 | 1018.1 |
| 20260905020523 | 18 | 299 | 0.0 | 1.6 | 0.00 | 0.00 | 0.00 | 97 | 1018.0 |
| 20260905020046 | 18 | 0 | 0.0 | 0.0 | 0.00 | 0.00 | 0.00 | 97 | 1018.1 |
| 20260905015521 | 18 | 0 | 0.0 | 0.0 | 0.00 | 0.00 | 0.00 | 97 | 1018.1 |
| 20260905015023 | 18 | 0 | 0.0 | 0.0 | 0.00 | 0.00 | 0.00 | 97 | 1018.1 |
| 20260905014533 | 18 | 0 | 0.0 | 0.0 | 0.00 | 0.00 | 0.00 | 97 | 1018.1 |
| 20260905014016 | 18 | 0 | 0.0 | 0.0 | 0.00 | 0.00 | 0.00 | 96 | 1018.1 |
| 20260905013519 | 18 | 0 | 0.0 | 0.0 | 0.00 | 0.00 | 0.00 | 96 | 1018.1 |
| 20260905013046 | 18 | 0 | 0.0 | 0.0 | 0.00 | 0.00 | 0.00 | 96 | 1018.0 |
| 20260905012523 | 18 | 0 | 0.0 | 0.0 | 0.00 | 0.00 | 0.00 | 96 | 1018.0 |
| 20260905012023 | 18 | 0 | 0.0 | 1.6 | 0.00 | 0.00 | 0.00 | 96 | 1018.0 |
| 20260905011605 | 18 | 0 | 0.0 | 1.6 | 0.00 | 0.00 | 0.00 | 96 | 1018.0 |
| 20260905011020 | 18 | 0 | 0.0 | 3.2 | 0.00 | 0.00 | 0.00 | 95 | 1017.9 |
| 20260905010520 | 18 | 0 | 0.0 | 3.2 | 0.00 | 0.00 | 0.00 | 95 | 1017.6 |
| 20260905010033 | 18 | 0 | 0.0 | 0.0 | 0.00 | 0.00 | 0.00 | 95 | 1017.5 |
| 20260905005521 | 18 | 0 | 0.0 | 0.0 | 0.00 | 0.00 | 0.00 | 96 | 1017.5 |
| 20260905005021 | 18 | 0 | 0.0 | 0.0 | 0.00 | 0.00 | 0.00 | 96 | 1017.5 |
| 20260905004536 | 18 | 0 | 0.0 | 1.6 | 0.00 | 0.00 | 0.00 | 95 | 1017.5 |
| 20260905004018 | 18 | 0 | 0.0 | 1.6 | 0.00 | 0.00 | 0.00 | 95 | 1017.4 |
| 20260905003516 | 18 | 0 | 0.0 | 1.6 | 0.00 | 0.00 | 0.00 | 95 | 1017.5 |
| 20260905003037 | 18 | 0 | 0.0 | 3.2 | 0.00 | 0.00 | 0.00 | 95 | 1017.3 |
| 20260905002520 | 18 | 0 | 0.0 | 4.8 | 0.00 | 0.00 | 0.00 | 94 | 1017.3 |
| 20260905002021 | 18 | 0 | 0.0 | 4.8 | 0.00 | 0.00 | 0.00 | 94 | 1017.2 |
| 20260905001545 | 18 | 0 | 0.0 | 4.8 | 0.00 | 0.00 | 0.00 | 94 | 1017.3 |
| 20260905001022 | 18 | 0 | 0.0 | 3.2 | 0.00 | 0.00 | 0.00 | 94 | 1017.3 |
| 20260905000520 | 18 | 0 | 0.0 | 3.2 | 0.00 | 0.00 | 0.00 | 94 | 1017.2 |
| 20260905000037 | 18 | 0 | 0.0 | 3.2 | 0.00 | 0.00 | 0.00 | 93 | 1017.2 |
| 20260904235517 | 18 | 0 | 0.0 | 6.4 | 0.00 | 0.00 | 0.00 | 94 | 1017.2 |
| 20260904235025 | 18 | 0 | 0.0 | 6.4 | 0.00 | 0.00 | 0.00 | 94 | 1017.3 |
| 20260904234538 | 18 | 0 | 0.0 | 3.2 | 0.00 | 0.00 | 0.00 | 94 | 1017.2 |
| 20260904234016 | 19 | 0 | 0.0 | 1.6 | 0.00 | 0.00 | 0.00 | 94 | 1017.2 |
| 20260904233516 | 19 | 0 | 0.0 | 1.6 | 0.00 | 0.00 | 0.00 | 94 | 1017.1 |
| 20260904233035 | 19 | 291 | 0.0 | 3.2 | 0.00 | 0.00 | 0.00 | 93 | 1017.1 |
| 20260904232520 | 19 | 0 | 0.0 | 3.2 | 0.00 | 0.00 | 0.00 | 93 | 1017.2 |
| 20260904232021 | 19 | 0 | 0.0 | 3.2 | 0.00 | 0.00 | 0.00 | 93 | 1017.2 |
| 20260904231535 | 19 | 0 | 0.0 | 3.2 | 0.00 | 0.00 | 0.00 | 93 | 1017.1 |
| 20260904231021 | 19 | 0 | 0.0 | 3.2 | 0.00 | 0.00 | 0.00 | 93 | 1017.0 |
| 20260904230521 | 19 | 0 | 0.0 | 3.2 | 0.00 | 0.00 | 0.00 | 93 | 1016.9 |
| 20260904230038 | 19 | 0 | 0.0 | 4.8 | 0.00 | 0.00 | 0.00 | 94 | 1016.9 |
| 20260904225522 | 19 | 0 | 0.0 | 4.8 | 0.00 | 0.00 | 0.00 | 94 | 1016.8 |
| 20260904225020 | 19 | 0 | 0.0 | 3.2 | 0.00 | 0.00 | 0.00 | 94 | 1016.7 |
| 20260904224536 | 19 | 0 | 0.0 | 4.8 | 0.00 | 0.00 | 0.00 | 94 | 1016.7 |
| 20260904224018 | 19 | 0 | 0.0 | 4.8 | 0.00 | 0.00 | 0.00 | 94 | 1016.8 |
| 20260904223518 | 19 | 0 | 0.0 | 4.8 | 0.00 | 0.00 | 0.00 | 94 | 1016.7 |
| 20260904223034 | 19 | 291 | 0.0 | 4.8 | 0.00 | 0.00 | 0.00 | 94 | 1016.8 |
| 20260904222516 | 19 | 0 | 0.0 | 4.8 | 0.00 | 0.00 | 0.00 | 94 | 1016.7 |
| 20260904222017 | 19 | 0 | 0.0 | 4.8 | 0.00 | 0.00 | 0.00 | 94 | 1016.7 |
| 20260904221534 | 20 | 308 | 0.0 | 4.8 | 0.00 | 0.00 | 0.00 | 94 | 1016.6 |
| 20260904221020 | 20 | 0 | 0.0 | 4.8 | 0.00 | 0.00 | 0.00 | 94 | 1016.5 |
| 20260904220521 | 20 | 175 | 0.0 | 4.8 | 0.00 | 0.00 | 0.00 | 93 | 1016.5 |
| 20260904220037 | 20 | 0 | 0.0 | 4.8 | 0.00 | 0.00 | 0.00 | 93 | 1016.4 |
| 20260904215520 | 20 | 0 | 0.0 | 4.8 | 0.00 | 0.00 | 0.00 | 93 | 1016.3 |
| 20260904215019 | 20 | 0 | 0.0 | 4.8 | 0.00 | 0.00 | 0.00 | 93 | 1016.3 |
| 20260904214537 | 20 | 0 | 0.0 | 4.8 | 0.00 | 0.00 | 0.00 | 92 | 1016.3 |
| 20260904214019 | 20 | 278 | 0.0 | 3.2 | 0.00 | 0.00 | 0.00 | 91 | 1016.3 |
| 20260904213518 | 21 | 0 | 0.0 | 3.2 | 0.00 | 0.00 | 0.00 | 91 | 1016.2 |
| 20260904213036 | 21 | 0 | 0.0 | 3.2 | 0.00 | 0.00 | 0.00 | 91 | 1016.2 |
| 20260904212519 | 21 | 0 | 0.0 | 3.2 | 0.00 | 0.00 | 0.00 | 91 | 1016.2 |
| 20260904212023 | 21 | 0 | 0.0 | 1.6 | 0.00 | 0.00 | 0.00 | 91 | 1016.2 |
| 20260904211534 | 21 | 0 | 0.0 | 1.6 | 0.00 | 0.00 | 0.00 | 91 | 1016.1 |
| 20260904211021 | 21 | 0 | 0.0 | 3.2 | 0.00 | 0.00 | 0.00 | 91 | 1016.1 |
| 20260904210520 | 21 | 0 | 0.0 | 3.2 | 0.00 | 0.00 | 0.00 | 90 | 1015.9 |
| 20260904210036 | 21 | 0 | 0.0 | 3.2 | 0.00 | 0.00 | 0.00 | 90 | 1016.1 |
| 20260904205525 | 21 | 0 | 0.0 | 3.2 | 0.00 | 0.00 | 0.00 | 90 | 1016.0 |
| 20260904205021 | 22 | 0 | 0.0 | 3.2 | 0.00 | 0.00 | 0.00 | 91 | 1016.0 |
| 20260904204537 | 22 | 0 | 0.0 | 4.8 | 0.00 | 0.00 | 0.00 | 91 | 1015.9 |
| 20260904204020 | 22 | 0 | 0.0 | 4.8 | 0.00 | 0.00 | 0.00 | 91 | 1015.8 |
| 20260904203519 | 22 | 0 | 0.0 | 3.2 | 0.00 | 0.00 | 0.00 | 90 | 1015.9 |
| 20260904203037 | 22 | 271 | 0.0 | 3.2 | 0.00 | 0.00 | 0.00 | 91 | 1015.8 |
| 20260904202518 | 22 | 0 | 0.0 | 1.6 | 0.00 | 0.00 | 0.00 | 90 | 1015.8 |
| 20260904202017 | 22 | 0 | 0.0 | 1.6 | 0.00 | 0.00 | 0.00 | 90 | 1015.8 |
| 20260904201534 | 22 | 0 | 0.0 | 4.8 | 0.00 | 0.00 | 0.00 | 90 | 1015.8 |
| 20260904201017 | 22 | 0 | 0.0 | 6.4 | 0.00 | 0.00 | 0.00 | 90 | 1015.8 |
| 20260904200521 | 22 | 0 | 0.0 | 6.4 | 0.00 | 0.00 | 0.00 | 90 | 1015.9 |
| 20260904200036 | 22 | 0 | 0.0 | 6.4 | 0.00 | 0.00 | 0.00 | 89 | 1015.9 |
| 20260904195521 | 22 | 0 | 0.0 | 3.2 | 0.00 | 0.00 | 0.00 | 89 | 1015.9 |
| 20260904195019 | 22 | 0 | 0.0 | 3.2 | 0.00 | 0.00 | 0.00 | 90 | 1015.8 |
| 20260904194539 | 22 | 0 | 0.0 | 3.2 | 0.00 | 0.00 | 0.00 | 90 | 1015.7 |
| 20260904194020 | 22 | 0 | 0.0 | 3.2 | 0.00 | 0.00 | 0.00 | 91 | 1015.8 |
| 20260904193519 | 22 | 0 | 0.0 | 3.2 | 0.00 | 0.00 | 0.00 | 91 | 1015.8 |
| 20260904193034 | 22 | 0 | 0.0 | 3.2 | 0.00 | 0.00 | 0.00 | 90 | 1015.6 |
| 20260904192517 | 22 | 0 | 0.0 | 4.8 | 0.00 | 0.00 | 0.00 | 91 | 1015.7 |
| 20260904192020 | 22 | 0 | 0.0 | 4.8 | 0.00 | 0.00 | 0.00 | 91 | 1015.7 |
| 20260904191535 | 22 | 0 | 0.0 | 4.8 | 0.00 | 0.00 | 0.00 | 90 | 1015.7 |
| 20260904191020 | 22 | 0 | 0.0 | 3.2 | 0.00 | 0.00 | 0.00 | 90 | 1015.7 |
| 20260904190520 | 22 | 0 | 0.0 | 3.2 | 0.00 | 0.00 | 0.00 | 90 | 1015.6 |
| 20260904190035 | 22 | 0 | 0.0 | 6.4 | 0.00 | 0.00 | 0.00 | 89 | 1015.6 |
| 20260904185519 | 22 | 0 | 0.0 | 6.4 | 0.00 | 0.00 | 0.00 | 89 | 1015.5 |
| 20260904185018 | 23 | 0 | 0.0 | 6.4 | 0.00 | 0.00 | 0.00 | 89 | 1015.4 |
| 20260904184538 | 23 | 0 | 0.0 | 6.4 | 0.00 | 0.00 | 0.00 | 89 | 1015.4 |
| 20260904184017 | 23 | 0 | 0.0 | 4.8 | 0.00 | 0.00 | 0.00 | 89 | 1015.3 |
| 20260904183521 | 23 | 0 | 0.0 | 4.8 | 0.00 | 0.00 | 0.00 | 89 | 1015.3 |
| 20260904183040 | 22 | 0 | 0.0 | 6.4 | 0.00 | 0.00 | 0.00 | 89 | 1015.2 |